New Deliveries

Update Airline Type Regn MSN/Line No. Remarks
CANADA          
  11/15/2014 Air Canada 787-8 C-GHPX 35261/LN 230 DD 10/30/14
  11/15/2014 Westjet 737-8CT C-GJLZ 60125/LN 5103 DD 10/02/14
  11/15/2014 Westjet 737-8CT C-FCSX 60126/LN 5106 DD 10/09/14
USA          
  10/17/2014 American A319-115 N9022G 6310 DD 10/15/14    LF Z/C Aviation Partners One LLC
  11/21/2014 American A319-115 N9023N 6349 DD 11/20/14
  10/31/2014 American 737-823 N959NN 33329/LN 5142 DD 10/28/14
  11/15/2014 American 737-823 N960NN 33330/LN 5156 DD 11/07/14
  11/21/2014 American 737-823 N961NN 31205/LN 5171 DD 11/18/14
  10/31/2014 American A321-231 N126AN 6313 DD 10/27/14     LF Aviation Capital Group
  11/15/2014 American A321-231 N127AA 6334 DD 11/07/14
  11/21/2014 American A321-231 N128AN 6346 DD 11/19/14
  10/17/2014 Delta 737-932ER N828DN 31939/LN 5114 DD 10/15/14 
  11/15/2014 Delta 737-932ER N829DN 31941/LN 5143 DD 11/14/14
  10/24/2014 Endeavor Air CL-600-2D24 N335PQ 15335 DD 10/23/14  LF Delta
  10/31/2014 Endeavor Air CL-600-2D24 N337PQ 15337 DD 10/27/14  LF Delta
  10/31/2014 FedEx 767-3S2F N108FE 44378/LN 1072 DD 10/28/14
  11/15/2014 FedEx 767-3S2F N109FE 42710/LN 1073 DD 11/14/14   Stephanie
  10/17/2014 Hawaiian A330-243 N374HA 1565 DD 10/14/14
  11/15/2014 JetBlue A321-231 N943JT 6326 DD 10/31/14
  11/21/2014 JetBlue A321-231 N944JT 6359 DD 11/19/14  
  10/24/2014 Mesa ERJ 170-200 LR N88310 17000427 LF United 10/17/14  (United DD 10/16/14)
  10/24/2014 Mesa ERJ 170-200 LR N86311 17000429 LF United 10/17/14  (United DD 10/16/14)
  11/15/2014 Mesa ERJ 170-200 LR N86312 17000432 DD 11/06/14  LF United
  11/15/2014 Mesa ERJ 170-200 LR N89313 17000433 DD 11/06/14  LF United
  11/21/2014 Mesa ERJ 170-200 LR N82314 17000436 DD 11/20/14  LF United
  11/21/2014 Mesa ERJ 170-200 LR N89315 17000437 DD 11/20/14  LF United
  10/31/2014 PSA Airlines CL-600-2D24 N555NN 15338 DD 10/27/14  LF American
  10/31/2014 PSA Airlines CL-600-2D24 N556NN 15339 DD 10/30/14  LF American
  11/15/2014 PSA Airlines CL-600-2D24 N557NN 15340 DD 11/04/14   LF American
  11/21/2014 PSA Airlines CL-600-2D24 N558NN 15342 DD 11/19/14  LF American
  10/24/2014 Republic ERJ 170-200 LR N438YX 17000428 DD 10/17/14  
  11/21/2014 Republic ERJ 170-200 LR N439YX 17000434 DD 11/17/14
  11/21/2014 Republic ERJ 170-200 LR N440YX 17000435 DD 11/17/14
  11/15/2014 Skywest ERJ 170-200 LR N122SY 17000431 DD 11/06/14 
  11/21/2014 Skywest ERJ 170-200 LR N124SY 17000439 DD 11/19/14
  10/17/2014 Southwest 737-8H4 N8651A 36920/LN 5125 DD 10/16/14
  11/15/2014 Southwest 737-8H4 N8652B 36971/LN 5151 DD 11/12/14
  10/17/2014 Spirit A320-232 N629NK 6300 DD 10/16/14
  10/31/2014 Spirit A320-232 N630NK 6304 DD 10/30/14  
  11/15/2014 Spirit A320-232 N631NK 6327 DD 11/04/14   
  11/21/2014 Spirit A320-232 N633NK 6345 DD 11/18/14
  11/15/2014 Sun Country 737-8FH N820SY 39951/LN 5166 DD 11/13/14  LF SMBC Aviation Capital
  10/17/2014 United 737-924ER N68836 60088/LN 5118 DD 10/15/14
  11/15/2014 United 787-9 N19951 36402/LN 223 DD 10/31/14
  11/15/2014 US Airways A321-231 N914UY 6337 DD 11/06/14
THE AMERICAS        
  11/15/2014 Aeromexico 737-852 N875AM 36705/LN 5149 DD 11/04/14  LF Jackson Square Aviation
  10/24/2014 Avianca A330-243 N941AV 1492 DD 10/20/14   LF Synergy Aerospace
  11/15/2014 Avianca Brasil A320-214 PR-OCB 6139 DD 10/15/14   LF Synergy Aerospace
  11/15/2014 Avianca Brasil A320-214 PR-OCD 6173 DD 10/15/14   LF Synergy Aerospace
  10/24/2014 Azul ATR72-600 PR-AQS 1180 DD 10/17/14  Lindo voo Azul
  11/21/2014 Azul ATR72-600 PR-AQT 1190 DD 11/20/14   Lua Azul
  10/31/2014 Azul ERJ 190-200 IGW PR-AUF 19000678 DD 10/30/14   Incrivelmente Azul
  11/15/2014 COPA 737-8V3 HP-1842CMP 40784/LN 5100 DD 10/01/14 
  10/24/2014 Interjet Superjet 100-95B XA-ALJ 95046 DD 10/21/14
  11/15/2014 Islena ATR72-600 HR-AYM 1185 DD 11/05/14
  11/15/2014 Volaris A320-233 XA-VLE 6288 DD 10/02/14   LF AWAS
  11/15/2014 Volaris A320-233 XA-VLF 6321 DD 10/21/14   LF AWAS
  11/15/2014 Volaris A320-233 N525VL 6332 DD 11/04/14
EUROPE          
  11/15/2014 Aeroflot 737-8MA VQ-BTC 43662/LN 5119 DD 10/10/14  LF Avolon
  10/31/2014 Aeroflot 737-81D VQ-BTE 39441/LN 5077 LF AWAS Ireland 10/24/14   (AWAS DD 9/26/14)
  11/15/2014 AirBridge Cargo 767-867F VQ-BVR 60687/LN 1505 DD 10/10/14
  11/15/2014 British Airways A320-232 G-EUYY 6290 DD 10/09/14  (Iberia delivery)
  11/15/2014 British Airways A380-841 G-XLEH 0163 DD 10/16/14
  11/15/2014 Iberia A320-214 EC-MDK 6328 DD 10/29/14   P.N. Picos de Europa
  10/24/2014 JetTime ATR72-600 OY-JZH 1177 DD 10/22/14
  11/15/2014 Lufthansa A320-214 D-AIUJ 6301 DD 10/13/14
  11/15/2014 Norwegian Air Shuttle 737-8JP LN-NIG 43878/LN 5123 DD 10/14/14
  11/21/2014 Ryanair 737-8MD EI-FEE 44686/LN 5072 DD 9/09/14
  11/21/2014 Ryanair 737-8MD EI-FEF 44687/LN 5099 DD 9/26/14
  11/21/2014 Ryanair 737-8MD EI-FEG 44688/LN 5111 DD 10/14/14
  11/21/2014 Ryanair 737-8MD EI-FEH 44689/LN 5124 DD 10/16/14
  11/15/2014 S7 Airlines 737-8GJ VQ-BVM 41400/LN 5094 DD 10/01/14  LF BOC Aviation
  11/15/2014 Thomas Cook Scandanavia A321-211 OY-TCD 6314 DD 10/24/14  LF GECAS
  11/15/2014 Virgin Atlantic 787-9 G-VNEW 40956/LN 218 DD 10/09/14   Birthday Girl 
AFRICA          
  10/31/2014 Arik AIr DHC-8-402 5N-BKW 4465 DD 10/29/14
  11/15/2014 Ethiopian 737-860 ET-ASJ 39442/LN 5141 DD 10/24/14   LF AWAS
  11/15/2014 Ethiopian 777F60 ET-ARH 42031/LN 1242 DD 10/31/14   
  11/15/2014 Ethiopian 787-8 ET-ARF 34752/LN 216 DD 10/01/14
  11/15/2014 Kenya Awys 737-8HX 5Y-CYA 40549/LN 5115 DD 10/14/14  LF Aviation Capital Group
  11/15/2014 Kenya Awys 787-8 5Y-KZF 36043/LN 224 DD 10/17/14
  11/15/2014 South African A320-232 ZS-SZH 6306 DD 10/21/14    Pembroke
WEST ASIA        
  11/15/2014 Air Arabia A320-214 A6-AOC 6293 DD 10/16/14
  11/15/2014 Emirates 777F1H A6-EFO 42233/LN 1248 DD 10/31/14   LF Dubai Aerospace Enterprise
  11/15/2014 Emirates 777-31HER A6-ENV 41368/LN 1243 DD 10/28/14
  11/15/2014 flydubai 737-8KN A6-FEQ 40267/LN 5117 DD 10/14/14
  11/15/2014 Royal Jordanian 787-8 JY-BAC 37164/LN 219 DD 10/24/14  LF CIT
  11/15/2014 Qatar Awys 777-3DZER A7-BED 60330/LN 1244 DD 10/27/14
  11/15/2014 Qatar Awys 787-8 A7-BCP 38334/LN 207 DD 10/27/14
  11/15/2014 Qatar Awys 787-8 A7-BCQ 38335/LN 215 DD 10/27/14
EAST ASIA        
  11/15/2014 Air China 737-89L B-1976 41098/LN 5131 DD 10/20/14
  11/15/2014 Air China 737-89L B-1978 41324/LN 5120 DD 10/17/14  LF Air Lease Corp
  11/15/2014 Air China A321-232 B-1878 6308 DD 10/15/14  LF Air Lease Corp
  11/15/2014 Air China A321-213 B-1876 6319 DD 10/27/14  LF GECAS
  11/15/2014 Air China A330-343 B-5957 1570 DD 20/24/14
  11/15/2014 Air Macau A321-231 B-MBM 6324 DD 10/28/14   LF Air Lease Corp
  11/15/2014 AirAsia A320-216 9M-AJT 6262 DD 10/30/14
  11/15/2014 Asiana A321-231 HL8004 6299 DD 10/01/14  LF ICBC
  11/15/2014 Batik Air A320-214 PK-LAG 6280 DD 10/22/14   (Lion Air delivery)
  11/15/2014 Batik Air A320-214 PK-LAH 6309 DD 10/27/14   (Lion Air delivery)
  11/15/2014 Batik Air 737-8GP PK-LBQ 39825/LN 5127 DD 10/17/14  (Lion Air delivery)
  11/15/2014 Batik Air 737-8GP PK-LBR 40061/LN 5130 DD 10/22/14  (Lion Air delivery)
  11/15/2014 Capital A320-214 B-1603 6206 DD 10/24/14   (Hong Kong Airlines delivery)
  11/15/2014 Cathay Pacific A330-343 B-LBH 1567 DD 10/22/14
  11/15/2014 Cathay Pacific 777-367ER B-KQR 41759/LN 1240 DD 10/07/14
  11/15/2014 Cathay Pacific 777-367ER B-KQS 42144/LN 1246 DD 10/2314
  11/15/2014 Cebu Pacific A320-214 RP-C4100 6317 DD 10/28/14
  11/15/2014 Chengdu A320-216 B-1631 6281 DD 10/28/14  LF CALC
  11/15/2014 China Airlines 777-36NER B-18052 41822/LN 1245 DD 10/23/14  LF GECAS
  11/15/2014 China Eastern A319-132 B-6463 6191 DD 10/15/14
  11/15/2014 China Eastern 737-79P B-5817 39739/LN 5121 DD 10/27/14
  11/15/2014 China Eastern A321-231 B-1858 6305 DD 10/16/14
  11/15/2014 China Eastern A330-243 B-5961 1569 DD 10/30/14
  11/15/2014 China Eastern 777-39PER B-2002 43288/LN 1247 DD 10/28/14
  11/15/2014 EVA Airways A321-211 B-16213 6312 DD 10/27/14   LF GECAS
  11/15/2014 Garuda 737-86N PK-GNN 41270/LN 5116 DD 10/09/14  LF GECAS
  11/15/2014 Garuda 737-8U3 PK-GNO 41800/LN 5109 DD 10/02/14  LF AerCap
  10/17/2014 Garuda explore ATR72-600 PK-GAH 1181 DD 10/15/14  LF Nordic Aviation
  11/15/2014 Garuda explore ATR72-600 PK-GAI 1191 DD 11/14/14
  11/15/2014 Hainan 737-84P B-1727 39216/LN 5128 DD 10/20/14
  11/15/2014 Hainan 737-86N B-1733 41254/LN 5132 DD 10/23/14  LF GECAS
  11/15/2014 Hong Kong Express A320-232 B-LCD 6302 DD 10/30/14   LF BOC Aviation
  11/15/2014 IndiGo A320-232 VT-IAX 6287 DD 10/07/14
  11/15/2014 Jet Airways 737-85R VT-JFZ 39069/LN 51112 DD 10/21/14
  11/15/2014 Jetstar Japan A320-232 JA19JJ 6296 DD 10/14/14
  11/15/2014 Jetstar Paciifc A320-232 VN-A561 6136 DD 10/20/14
    Lao ATR72-600 RDPL-34226 1189 DD 11/14/14
  11/15/2014 Lion Air 737-9GPER PK-LPI 38299/LN 5134 DD 10/29/14
  10/24/2014 Malindo Air ATR72-600 9M-LMR 1186 DD 10/23/14  (Wings Abadi delivery)
  11/15/2014 Malindo Air 737-8GP 9M-LNM 39826/LN 5122 DD 10/15/14  (Lion Air Delivery)
    MASwings ATR72-600 9M-MYD 1187 DD 11/04/14
  11/15/2014 Nippon Cargo 747-8KZF JA18KZ 36141/LN 1489 DD 10/23/14
  11/15/2014 Nok Air DHC-8-402 HS-DQC 4479 DD 11/06/14  Nok Kao Pun
    Nok Air DHC-8-402 HS-DQD 4480 DD 11/11/14  Nok Pao Poon
  11/15/2014 Nok Air 737-86N HS-DBS 43421/LN 5137 DD 10/22/14  LF GECAS
  11/15/2014 Philippine A321-231 RP-C9912 6291 DD 10/01/14
  11/15/2014 Philippine A321-231 RP-C9914 6295 DD 10/06/14
  11/15/2014 Philippine A321-231 RP-C9915 6330 DD 10/28/14
  11/15/2014 Philippine A330-343 RP-C8765 1559 DD 10/17/14
  11/15/2014 Shandong 737-85N B-1731 41619/LN 5139 DD 10/23/14
  11/15/2014 Shanghai 737-89P B-1720 41493/LN 5135 DD 10/22/14   (China Eastern delivery)
  11/15/2014 Shenzhen A320-232 B-1601 6197 DD 10/17/14
  11/15/2014 Sichuan A321-231 B-1890 6303 DD 10/15/14
  11/15/2014 Sichuan A321-231 B-1891 6316 DD 10/21/14  LF Air Lease Corp
  11/15/2014 SilkAir 737-8SA 9V-MGG 44223/LN 5140 DD 10/24/14 
  11/15/2014 SriLankan A330-343 4R-ALL 1564 DD 10/29/14   LF Air Lease Corp.
  11/15/2014 Thai International 787-8 HS-TQC 36110/LN 226 DD 10/29/14  LF AerCap
  11/15/2014 Thai Smile A320-232 HS-TXQ 6297 DD 10/16/14    Phra Nakhon Si Ayutthaya
  10/24/2014 UNI Airways ATR72-600 B-17013 1183 DD 10/22/14  LF AVAP
  11/15/2014 Vanilla Air A320-216 JA05VA 6282 DD 10/07/14  LF SMBC Aviation Capital
  11/15/2014 Wings Abadi Air ATR72-600 PK-WGQ 1188 DD 10/31/14
  11/15/2014 Xiamen 737-85C B-1707 39906/LN 5126 DD 10/15/14
  11/15/2014 Xiamen 787-8 B-2769 41539/LN 227 DD 10/24/14
OCEANIA          
    Air Tahiti ATR72-600 F-ORVS 1192 DD 11/18/14
  11/15/2014 QANTAS 737-838 VH-XZO 44576/LN 5108 DD 10/06/14